Location: Newark
(21.0333°N, 105.8500°E)
Time: 23:04:41
(UTC+00:00)

Envisat - Pass Details

Date: 14 December 2019
Orbit: 764 x 766 km, 98.1° (Epoch: 21 January)

Event Time Altitude Azimuth Distance (km) Brightness Sun altitude
Rises 22:21:08 0° 42° (NE) 3,222 6.5 -14.7°
Reaches altitude 10° 22:24:51 10° 70° (ENE) 2,293 6.2 -13.9°
Maximum altitude 22:27:02 13° 96° (E) 2,105 6.5 -13.4°
Drops below altitude 10° 22:29:12 10° 122° (ESE) 2,290 6.9 -13.0°
Sets 22:32:53 0° 150° (SSE) 3,212 7.1 -12.2°
